Location: Grange Rosano
(44.4500°N, 6.9667°E)
Time: 16:36:54
(UTC+00:00)

ADEOS II - Pass Details

Date: 08 October 2022
Orbit: 799 x 799 km, 98.6° (Epoch: 30 November)

Event Time Altitude Azimuth Distance (km) Brightness Sun altitude
Rises 01:17:59 0° 18° (NNE) 3,319 6.0 -43.5°
Reaches altitude 10° 01:20:23 10° 23° (NNE) 2,384 5.1 -43.2°
Enters shadow 01:21:04 14° 26° (NNE) 2,127 4.8 -43.2°
